Silverthorne, CO

6:09 AM MDT on August 28, 2016 (GMT -0600)
Kremmling

Weather History for K20V - October, 2013

Change the Weather History Date:

Monday, October 28, 2013

  Actual Average Record
Temperature  
Mean Temperature 43 °F -  
Max Temperature 60 °F - 62 °F (2003)
Min Temperature 26 °F - 10 °F (2010)
Degree Days  
Heating Degree Days 22    
Month to date heating degree days  
Cooling Degree Days 0    
Month to date cooling degree days  
Moisture  
Dew Point 19 °F    
Average Humidity 49    
Maximum Humidity 86    
Minimum Humidity 15    
Precipitation  
Precipitation 0.00 in - 0.00 in (2016)
Sea Level Pressure  
Sea Level Pressure 29.91 in    
Wind  
Wind Speed 2 mph (South)    
Max Wind Speed 13 mph    
Max Gust Speed 23 mph    
Visibility 10 miles    
Events      
T = Trace of Precipitation, MM = Missing Value Source: NWS Daily Summary

Daily Weather History Graph

Daily Weather History Graph

Search for Another Location

Airport or City:

Trip Planner

Search our weather history database for the weather conditions in past years. The results will help you decide how hot, cold, wet, or windy it might be!

Date:

Astronomy

Oct. 28, 2013 Rise Set
Actual Time 7:30 AM MDT 6:07 PM MDT
Civil Twilight 7:02 AM MDT 6:35 PM MDT
Nautical Twilight 6:30 AM MDT 7:07 PM MDT
Astronomical Twilight 5:59 AM MDT 7:38 PM MDT
Moon 1:26 AM MDT 2:51 PM MDT
Length of Visible Light 11h 32m
Length of Day
10h 36m
Waning Crescent, 33% of the Moon is Illuminated
Oct 28
Waning Crescent
Nov 3
New
Nov 9
First Quarter
Nov 17
Full
Nov 25
Last Quarter

Hourly Weather History & Observations

Time (MDT) Temp. Windchill Dew Point Humidity Pressure Visibility Wind Dir Wind Speed Gust Speed Precip Events Conditions
12:16 AM 33.8 °F - 23.0 °F 65% 30.00 in 10.0 mi Calm Calm - N/A   Overcast
12:36 AM 33.8 °F - 23.0 °F 65% 30.00 in 10.0 mi Calm Calm - N/A   Mostly Cloudy
12:55 AM 32.0 °F - 23.0 °F 69% 30.00 in 10.0 mi Calm Calm - N/A   Scattered Clouds
1:16 AM 33.8 °F - 23.0 °F 65% 30.00 in 7.0 mi Calm Calm - N/A   Scattered Clouds
1:36 AM 32.0 °F - 21.2 °F 64% 30.00 in 10.0 mi Calm Calm - N/A   Scattered Clouds
1:56 AM 30.2 °F - 21.2 °F 69% 29.99 in 10.0 mi Calm Calm - N/A   Mostly Cloudy
2:16 AM 30.2 °F - 21.2 °F 69% 29.99 in 10.0 mi Calm Calm - N/A   Scattered Clouds
2:36 AM 30.2 °F - 23.0 °F 75% 29.99 in 10.0 mi Calm Calm - N/A   Mostly Cloudy
2:56 AM 30.2 °F - 23.0 °F 75% 29.98 in 10.0 mi Calm Calm - N/A   Mostly Cloudy
3:15 AM 30.2 °F - 23.0 °F 75% 29.98 in 10.0 mi Calm Calm - N/A   Mostly Cloudy
3:36 AM 30.2 °F - 23.0 °F 75% 29.97 in 10.0 mi Calm Calm - N/A   Mostly Cloudy
3:56 AM 30.2 °F - 23.0 °F 75% 29.97 in 10.0 mi Calm Calm - N/A   Overcast
4:16 AM 30.2 °F - 23.0 °F 75% 29.97 in 10.0 mi Calm Calm - N/A   Scattered Clouds
4:36 AM 30.2 °F - 23.0 °F 75% 29.97 in 10.0 mi Calm Calm - N/A   Scattered Clouds
4:56 AM 30.2 °F - 24.8 °F 80% 29.98 in 10.0 mi Calm Calm - N/A   Mostly Cloudy
5:16 AM 30.2 °F - 23.0 °F 75% 29.99 in 10.0 mi Calm Calm - N/A   Overcast
5:36 AM 32.0 °F 28.7 °F 23.0 °F 69% 29.97 in 10.0 mi NNE 3.5 mph - N/A   Overcast
5:56 AM 30.2 °F 23.4 °F 23.0 °F 75% 29.98 in 10.0 mi ESE 6.9 mph - N/A   Scattered Clouds
6:16 AM 30.2 °F - 23.0 °F 75% 29.96 in 10.0 mi Calm Calm - N/A   Clear
6:36 AM 30.2 °F 26.7 °F 24.8 °F 80% 29.97 in 10.0 mi WSW 3.5 mph - N/A   Scattered Clouds
6:56 AM 28.4 °F - 23.0 °F 80% 29.97 in 10.0 mi Calm Calm - N/A   Scattered Clouds
7:16 AM 28.4 °F 23.3 °F 21.2 °F 74% 29.96 in 10.0 mi North 4.6 mph - N/A   Clear
7:35 AM 26.6 °F - 23.0 °F 86% 29.96 in 10.0 mi Calm Calm - N/A   Clear
7:56 AM 26.6 °F 22.6 °F 21.2 °F 80% 29.96 in 10.0 mi East 3.5 mph - N/A   Clear
8:16 AM 30.2 °F - 23.0 °F 75% 29.97 in 10.0 mi Calm Calm - N/A   Clear
8:36 AM 30.2 °F 26.7 °F 23.0 °F 75% 29.96 in 10.0 mi SSW 3.5 mph - N/A   Clear
8:56 AM 32.0 °F - 23.0 °F 69% 29.96 in 10.0 mi Calm Calm - N/A   Clear
9:16 AM 33.8 °F - 23.0 °F 65% 29.96 in 10.0 mi Calm Calm - N/A   Clear
9:36 AM 35.6 °F - 23.0 °F 60% 29.95 in 10.0 mi Calm Calm - N/A   Clear
9:56 AM 37.4 °F - 24.8 °F 60% 29.94 in 10.0 mi Calm Calm - N/A   Clear
10:16 AM 41.0 °F - 23.0 °F 49% 29.94 in 10.0 mi Calm Calm - N/A   Clear
10:36 AM 42.8 °F - 23.0 °F 46% 29.93 in 10.0 mi Calm Calm - N/A   Clear
10:56 AM 46.4 °F - 23.0 °F 40% 29.92 in 10.0 mi Calm Calm - N/A   Scattered Clouds
11:16 AM 50.0 °F - 23.0 °F 35% 29.91 in 10.0 mi Calm Calm - N/A   Scattered Clouds
11:36 AM 51.8 °F - 23.0 °F 33% 29.90 in 10.0 mi Calm Calm - N/A   Scattered Clouds
11:56 AM 53.6 °F - 21.2 °F 28% 29.89 in 10.0 mi Calm Calm - N/A   Scattered Clouds
12:16 PM 53.6 °F - 21.2 °F 28% 29.88 in 10.0 mi Calm Calm - N/A   Scattered Clouds
12:36 PM 55.4 °F - 19.4 °F 25% 29.87 in 10.0 mi SSE 3.5 mph - N/A   Clear
12:56 PM 53.6 °F - 17.6 °F 24% 29.86 in 10.0 mi SSE 4.6 mph - N/A   Scattered Clouds
1:16 PM 55.4 °F - 17.6 °F 23% 29.86 in 10.0 mi SSW 6.9 mph - N/A   Scattered Clouds
1:36 PM 57.2 °F - 14.0 °F 18% 29.84 in 10.0 mi SE 4.6 mph - N/A   Mostly Cloudy
1:56 PM 60.8 °F - 14.0 °F 16% 29.84 in 10.0 mi SSE 5.8 mph 16.1 mph N/A   Scattered Clouds
2:16 PM 59.0 °F - 10.4 °F 15% 29.83 in 10.0 mi SW 11.5 mph 23.0 mph N/A   Scattered Clouds
2:36 PM 59.0 °F - 10.4 °F 15% 29.83 in 10.0 mi SSW 9.2 mph 18.4 mph N/A   Scattered Clouds
2:56 PM 55.4 °F - 10.4 °F 17% 29.84 in 10.0 mi WSW 9.2 mph - N/A   Mostly Cloudy
3:16 PM 59.0 °F - 12.2 °F 16% 29.84 in 10.0 mi WSW 12.7 mph - N/A   Mostly Cloudy
3:36 PM 57.2 °F - 10.4 °F 16% 29.84 in 10.0 mi WSW 9.2 mph 16.1 mph N/A   Scattered Clouds
3:56 PM 59.0 °F - 10.4 °F 15% 29.83 in 10.0 mi WSW 8.1 mph - N/A   Scattered Clouds
4:15 PM 55.4 °F - 10.4 °F 17% 29.84 in 10.0 mi WSW 10.4 mph - N/A   Clear
4:36 PM 55.4 °F - 10.4 °F 17% 29.83 in 10.0 mi SW 4.6 mph - N/A   Clear
4:56 PM 59.0 °F - 10.4 °F 15% 29.83 in 10.0 mi SSW 5.8 mph - N/A   Clear
5:16 PM 57.2 °F - 10.4 °F 16% 29.83 in 10.0 mi SW 3.5 mph - N/A   Clear
5:36 PM 55.4 °F - 12.2 °F 18% 29.83 in 10.0 mi SSW 3.5 mph - N/A   Clear
5:56 PM 53.6 °F - 12.2 °F 19% 29.83 in 10.0 mi South 4.6 mph - N/A   Scattered Clouds
6:16 PM 50.0 °F - 14.0 °F 24% 29.83 in 10.0 mi SE 3.5 mph - N/A   Mostly Cloudy
6:36 PM 46.4 °F 45.2 °F 14.0 °F 27% 29.84 in 10.0 mi SSE 3.5 mph - N/A   Scattered Clouds
6:56 PM 50.0 °F - 12.2 °F 22% 29.85 in 10.0 mi Calm Calm - N/A   Clear
7:16 PM 41.0 °F 37.1 °F 14.0 °F 33% 29.85 in 10.0 mi ESE 5.8 mph - N/A   Scattered Clouds
7:36 PM 42.8 °F - 14.0 °F 31% 29.86 in 10.0 mi Calm Calm - N/A   Scattered Clouds
7:56 PM 39.2 °F 37.0 °F 15.8 °F 39% 29.86 in 10.0 mi ENE 3.5 mph - N/A   Mostly Cloudy
8:16 PM 35.6 °F - 15.8 °F 44% 29.87 in 10.0 mi Calm Calm - N/A   Scattered Clouds
8:35 PM 35.6 °F 32.8 °F 17.6 °F 48% 29.87 in 10.0 mi North 3.5 mph - N/A   Clear
8:55 PM 37.4 °F 33.8 °F 17.6 °F 45% 29.87 in 10.0 mi East 4.6 mph - N/A   Clear
9:16 PM 35.6 °F 31.7 °F 15.8 °F 44% 29.87 in 10.0 mi NE 4.6 mph - N/A   Clear
9:36 PM 35.6 °F - 15.8 °F 44% 29.87 in 10.0 mi Calm Calm - N/A   Clear
9:56 PM 33.8 °F - 17.6 °F 52% 29.88 in 10.0 mi Calm Calm - N/A   Clear
10:16 PM 32.0 °F 27.5 °F 17.6 °F 55% 29.88 in 10.0 mi SE 4.6 mph - N/A   Clear
10:36 PM 32.0 °F 28.7 °F 17.6 °F 55% 29.88 in 10.0 mi ENE 3.5 mph - N/A   Clear
10:56 PM 32.0 °F - 17.6 °F 55% 29.88 in 10.0 mi Calm Calm - N/A   Clear
11:16 PM 33.8 °F - 19.4 °F 56% 29.88 in 10.0 mi Calm Calm - N/A   Clear
11:36 PM 30.2 °F - 19.4 °F 64% 29.88 in 10.0 mi Calm Calm - N/A   Clear
11:55 PM 30.2 °F 26.7 °F 19.4 °F 64% 29.88 in 10.0 mi North 3.5 mph - N/A   Clear